STARLINK-32166 (60257 NORAD) Tracking and Keplerian Element Data

This shows tracking and keplerian element data for the satellite.

Feedback or suggestion? Click here.




ElementValue
Catalog60257
NameSTARLINK-32166
Epoch Orbit1315
Epoch Day286.68396203
Epoch Year2024
RAAN276.8215
Inclination53.1591
Eccentricity0.0001627
Argument of Perigee110.3459
Mean Anonmoly249.7721
Mean Motion15.39636917
Decay Rate7.039E-05
L11 60257U 24131C 24286.68396203 .00007039 00000+0 18569-3 0 9990
L22 60257 53.1591 276.8215 0001627 110.3459 249.7721 15.39636917 13158



Live tracking and technical data element details for STARLINK-32166 (NORAD 60257). STARLINK-32166 can be tracked NOW for your location showing map with azimuth and elevation plus other details from your city location.







IsCatalogInMostPopularTable: catalog: 60257, numindb: 13
Update: records affected: 1



GetName: 60257 STARLINK-32166

Hit Count: updated at: Thu, 23 Jan 2025 15:22:58 GMT